Time,TemperatureF,DewpointF,PressureIn,WindDirection,WindDirectionDegrees,WindSpeedMPH,WindSpeedGustMPH,Humidity,HourlyPrecipIn,Conditions,Clouds,dailyrainin,SoftwareType,DateUTC
2013-04-30 00:10:00,32.8,23.0,30.10,South,177,0.0,0.0,67,0.00,,,0.00,weatherlink.com 1.10,2013-04-30 08:10:00,
2013-04-30 00:25:00,33.2,23.0,30.10,South,177,0.0,0.0,66,0.00,,,0.00,weatherlink.com 1.10,2013-04-30 08:25:00,
2013-04-30 00:40:00,33.4,23.0,30.10,South,177,0.0,0.0,65,0.00,,,0.00,weatherlink.com 1.10,2013-04-30 08:40:00,
2013-04-30 00:55:00,33.4,23.0,30.09,South,177,0.0,0.0,66,0.00,,,0.00,weatherlink.com 1.10,2013-04-30 08:55:00,
2013-04-30 01:10:00,33.0,23.0,30.09,South,177,0.0,1.0,67,0.00,,,0.00,weatherlink.com 1.10,2013-04-30 09:10:00,
2013-04-30 01:25:00,32.8,23.0,30.09,South,177,0.0,0.0,66,0.00,,,0.00,weatherlink.com 1.10,2013-04-30 09:25:00,
2013-04-30 01:40:00,33.1,23.0,30.09,South,177,0.0,0.0,66,0.00,,,0.00,weatherlink.com 1.10,2013-04-30 09:40:00,
2013-04-30 01:55:00,33.2,23.0,30.08,South,177,0.0,0.0,66,0.00,,,0.00,weatherlink.com 1.10,2013-04-30 09:55:00,
2013-04-30 02:10:00,32.4,23.0,30.08,South,177,1.0,2.0,67,0.00,,,0.00,weatherlink.com 1.10,2013-04-30 10:10:00,
2013-04-30 02:25:00,32.1,22.0,30.07,South,177,0.0,1.0,66,0.00,,,0.00,weatherlink.com 1.10,2013-04-30 10:25:00,
2013-04-30 02:40:00,32.3,22.0,30.07,South,177,0.0,1.0,66,0.00,,,0.00,weatherlink.com 1.10,2013-04-30 10:40:00,
2013-04-30 02:55:00,31.9,22.0,30.07,South,177,0.0,1.0,66,0.00,,,0.00,weatherlink.com 1.10,2013-04-30 10:55:00,
2013-04-30 03:10:00,32.4,21.0,30.06,South,177,1.0,2.0,64,0.00,,,0.00,weatherlink.com 1.10,2013-04-30 11:10:00,
2013-04-30 03:25:00,32.7,22.0,30.05,South,177,0.0,1.0,64,0.00,,,0.00,weatherlink.com 1.10,2013-04-30 11:25:00,
2013-04-30 03:40:00,33.0,21.0,30.05,South,177,0.0,1.0,62,0.00,,,0.00,weatherlink.com 1.10,2013-04-30 11:40:00,
2013-04-30 03:55:00,32.9,21.0,30.04,South,177,0.0,2.0,62,0.00,,,0.00,weatherlink.com 1.10,2013-04-30 11:55:00,
2013-04-30 04:10:00,32.7,21.0,30.04,South,177,0.0,1.0,62,0.00,,,0.00,weatherlink.com 1.10,2013-04-30 12:10:00,
2013-04-30 04:26:00,33.1,21.0,30.03,South,177,0.0,0.0,61,0.00,,,0.00,weatherlink.com 1.10,2013-04-30 12:26:00,
2013-04-30 04:41:00,33.7,21.0,30.03,South,177,0.0,3.0,60,0.00,,,0.00,weatherlink.com 1.10,2013-04-30 12:41:00,
2013-04-30 04:56:00,33.8,21.0,30.03,South,177,1.0,2.0,60,0.00,,,0.00,weatherlink.com 1.10,2013-04-30 12:56:00,
2013-04-30 05:11:00,33.5,21.0,30.03,South,177,0.0,2.0,61,0.00,,,0.00,weatherlink.com 1.10,2013-04-30 13:11:00,
2013-04-30 05:26:00,33.3,22.0,30.02,SSE,164,0.0,3.0,63,0.00,,,0.00,weatherlink.com 1.10,2013-04-30 13:26:00,
2013-04-30 05:41:00,33.3,22.0,30.02,SSE,164,1.0,2.0,63,0.00,,,0.00,weatherlink.com 1.10,2013-04-30 13:41:00,
2013-04-30 05:56:00,33.3,22.0,30.02,WNW,288,1.0,3.0,64,0.00,,,0.00,weatherlink.com 1.10,2013-04-30 13:56:00,
2013-04-30 06:11:00,33.2,22.0,30.01,West,281,0.0,2.0,64,0.00,,,0.00,weatherlink.com 1.10,2013-04-30 14:11:00,
2013-04-30 06:26:00,33.2,23.0,30.00,West,281,0.0,3.0,65,0.00,,,0.00,weatherlink.com 1.10,2013-04-30 14:26:00,
2013-04-30 06:41:00,33.1,23.0,30.00,West,279,1.0,3.0,66,0.00,,,0.00,weatherlink.com 1.10,2013-04-30 14:41:00,
2013-04-30 06:56:00,33.2,23.0,29.99,West,279,0.0,2.0,66,0.00,,,0.00,weatherlink.com 1.10,2013-04-30 14:56:00,
2013-04-30 07:11:00,33.4,23.0,29.98,West,279,0.0,2.0,66,0.00,,,0.00,weatherlink.com 1.10,2013-04-30 15:11:00,
2013-04-30 07:26:00,33.9,23.0,29.98,West,279,1.0,1.0,65,0.00,,,0.00,weatherlink.com 1.10,2013-04-30 15:26:00,
2013-04-30 07:56:00,33.7,23.0,29.98,West,279,2.0,2.0,66,0.00,,,0.00,weatherlink.com 1.10,2013-04-30 15:56:00,
2013-04-30 08:11:00,33.8,24.0,29.97,West,279,0.0,1.0,67,0.00,,,0.00,weatherlink.com 1.10,2013-04-30 16:11:00,
2013-04-30 08:26:00,34.3,24.0,29.97,West,279,4.0,5.0,65,0.00,,,0.00,weatherlink.com 1.10,2013-04-30 16:26:00,
2013-04-30 08:41:00,34.7,24.0,29.96,West,271,2.0,5.0,65,0.00,,,0.00,weatherlink.com 1.10,2013-04-30 16:41:00,
2013-04-30 09:11:00,35.2,26.0,29.95,WSW,237,5.0,8.0,68,0.00,,,0.00,weatherlink.com 1.10,2013-04-30 17:11:00,
2013-04-30 09:26:00,35.2,26.0,29.95,West,267,0.0,7.0,70,0.00,,,0.00,weatherlink.com 1.10,2013-04-30 17:26:00,
2013-04-30 09:41:00,35.5,27.0,29.95,WSW,256,2.0,8.0,70,0.00,,,0.00,weatherlink.com 1.10,2013-04-30 17:41:00,
2013-04-30 09:56:00,36.1,27.0,29.95,SW,227,3.0,7.0,70,0.00,,,0.00,weatherlink.com 1.10,2013-04-30 17:56:00,
2013-04-30 10:11:00,36.7,28.0,29.94,SSW,205,1.0,10.0,71,0.00,,,0.00,weatherlink.com 1.10,2013-04-30 18:11:00,
2013-04-30 10:26:00,36.9,28.0,29.94,SSW,196,7.0,8.0,69,0.00,,,0.00,weatherlink.com 1.10,2013-04-30 18:26:00,
2013-04-30 10:41:00,37.2,28.0,29.93,SSE,155,3.0,9.0,70,0.00,,,0.00,weatherlink.com 1.10,2013-04-30 18:41:00,
2013-04-30 10:56:00,37.2,27.0,29.93,SSW,209,7.0,10.0,67,0.00,,,0.00,weatherlink.com 1.10,2013-04-30 18:56:00,
2013-04-30 11:11:00,37.4,26.0,29.93,SW,216,1.0,10.0,64,0.00,,,0.00,weatherlink.com 1.10,2013-04-30 19:11:00,
2013-04-30 11:26:00,38.0,27.0,29.93,SW,215,2.0,11.0,64,0.00,,,0.00,weatherlink.com 1.10,2013-04-30 19:26:00,
2013-04-30 11:41:00,38.7,27.0,29.92,SW,219,6.0,11.0,62,0.00,,,0.00,weatherlink.com 1.10,2013-04-30 19:41:00,
2013-04-30 11:56:00,38.7,26.0,29.92,SW,222,1.0,9.0,60,0.00,,,0.00,weatherlink.com 1.10,2013-04-30 19:56:00,
2013-04-30 12:26:00,39.1,26.0,29.92,WSW,245,6.0,8.0,59,0.00,,,0.00,weatherlink.com 1.10,2013-04-30 20:26:00,
2013-04-30 12:41:00,37.9,25.0,29.92,SE,146,3.0,9.0,60,0.00,,,0.00,weatherlink.com 1.10,2013-04-30 20:41:00,
2013-04-30 12:56:00,37.8,26.0,29.92,ESE,113,1.0,5.0,62,0.00,,,0.00,weatherlink.com 1.10,2013-04-30 20:56:00,
2013-04-30 13:11:00,38.0,26.0,29.92,South,185,2.0,5.0,62,0.00,,,0.00,weatherlink.com 1.10,2013-04-30 21:11:00,
2013-04-30 13:27:00,38.0,25.0,29.91,South,182,2.0,6.0,60,0.00,,,0.00,weatherlink.com 1.10,2013-04-30 21:27:00,
2013-04-30 13:42:00,38.0,25.0,29.91,South,184,2.0,6.0,60,0.00,,,0.00,weatherlink.com 1.10,2013-04-30 21:42:00,
2013-04-30 13:57:00,38.0,25.0,29.91,SSE,157,5.0,8.0,61,0.00,,,0.00,weatherlink.com 1.10,2013-04-30 21:57:00,
2013-04-30 14:12:00,38.2,25.0,29.91,SSE,162,1.0,5.0,60,0.00,,,0.00,weatherlink.com 1.10,2013-04-30 22:12:00,
2013-04-30 14:27:00,38.0,25.0,29.90,SSE,167,4.0,6.0,61,0.00,,,0.00,weatherlink.com 1.10,2013-04-30 22:27:00,
2013-04-30 14:42:00,38.2,26.0,29.90,SSE,147,0.0,2.0,61,0.00,,,0.00,weatherlink.com 1.10,2013-04-30 22:42:00,
2013-04-30 14:57:00,38.8,25.0,29.90,East,101,0.0,6.0,59,0.00,,,0.00,weatherlink.com 1.10,2013-04-30 22:57:00,
2013-04-30 15:12:00,39.0,26.0,29.89,ESE,105,8.0,9.0,61,0.00,,,0.00,weatherlink.com 1.10,2013-04-30 23:12:00,
2013-04-30 15:27:00,38.6,26.0,29.89,East,80,0.0,7.0,61,0.00,,,0.00,weatherlink.com 1.10,2013-04-30 23:27:00,
2013-04-30 15:42:00,39.8,27.0,29.89,SE,143,2.0,13.0,61,0.00,,,0.00,weatherlink.com 1.10,2013-04-30 23:42:00,
2013-04-30 15:57:00,38.7,26.0,29.88,ESE,123,3.0,8.0,61,0.00,,,0.00,weatherlink.com 1.10,2013-04-30 23:57:00,
2013-04-30 16:12:00,38.5,26.0,29.88,SE,129,0.0,5.0,61,0.00,,,0.00,weatherlink.com 1.10,2013-05-01 00:12:00,
2013-04-30 16:27:00,39.0,26.0,29.87,ESE,113,0.0,7.0,60,0.00,,,0.00,weatherlink.com 1.10,2013-05-01 00:27:00,
2013-04-30 16:42:00,39.4,27.0,29.86,SE,139,2.0,5.0,61,0.00,,,0.00,weatherlink.com 1.10,2013-05-01 00:42:00,
2013-04-30 16:57:00,38.9,26.0,29.86,SSE,155,4.0,6.0,61,0.00,,,0.00,weatherlink.com 1.10,2013-05-01 00:57:00,
2013-04-30 17:12:00,38.5,27.0,29.86,SSW,205,4.0,5.0,63,0.00,,,0.00,weatherlink.com 1.10,2013-05-01 01:12:00,
2013-04-30 17:27:00,38.4,27.0,29.85,South,184,5.0,7.0,63,0.00,,,0.00,weatherlink.com 1.10,2013-05-01 01:27:00,
2013-04-30 17:42:00,37.8,27.0,29.85,ESE,111,0.0,5.0,65,0.00,,,0.00,weatherlink.com 1.10,2013-05-01 01:42:00,
2013-04-30 17:57:00,37.5,27.0,29.84,East,93,0.0,7.0,66,0.00,,,0.00,weatherlink.com 1.10,2013-05-01 01:57:00,
2013-04-30 18:12:00,37.9,27.0,29.84,East,94,3.0,5.0,65,0.00,,,0.00,weatherlink.com 1.10,2013-05-01 02:12:00,
2013-04-30 18:27:00,38.4,27.0,29.83,ESE,113,0.0,2.0,64,0.00,,,0.00,weatherlink.com 1.10,2013-05-01 02:27:00,
2013-04-30 18:42:00,38.3,27.0,29.83,ESE,113,0.0,4.0,63,0.00,,,0.00,weatherlink.com 1.10,2013-05-01 02:42:00,
2013-04-30 18:57:00,38.3,27.0,29.82,ESE,113,0.0,3.0,63,0.00,,,0.00,weatherlink.com 1.10,2013-05-01 02:57:00,
2013-04-30 19:12:00,37.9,27.0,29.82,ESE,113,0.0,3.0,65,0.00,,,0.00,weatherlink.com 1.10,2013-05-01 03:12:00,
2013-04-30 19:27:00,37.8,28.0,29.81,ESE,113,2.0,4.0,67,0.00,,,0.00,weatherlink.com 1.10,2013-05-01 03:27:00,
2013-04-30 19:57:00,37.4,30.0,29.81,ESE,113,1.0,4.0,75,0.00,,,0.00,weatherlink.com 1.10,2013-05-01 03:57:00,
2013-04-30 20:12:00,37.0,29.0,29.80,ESE,113,0.0,3.0,74,0.00,,,0.00,weatherlink.com 1.10,2013-05-01 04:12:00,
2013-04-30 20:27:00,36.9,30.0,29.80,ESE,113,0.0,3.0,75,0.00,,,0.00,weatherlink.com 1.10,2013-05-01 04:27:00,
2013-04-30 20:42:00,36.6,29.0,29.80,ESE,113,0.0,1.0,75,0.00,,,0.00,weatherlink.com 1.10,2013-05-01 04:42:00,
2013-04-30 20:57:00,36.6,29.0,29.79,ESE,113,0.0,0.0,74,0.00,,,0.00,weatherlink.com 1.10,2013-05-01 04:57:00,
2013-04-30 21:12:00,35.6,28.0,29.79,ENE,57,3.0,6.0,75,0.00,,,0.00,weatherlink.com 1.10,2013-05-01 05:12:00,
2013-04-30 21:27:00,34.6,28.0,29.79,NE,56,3.0,6.0,76,0.00,,,0.00,weatherlink.com 1.10,2013-05-01 05:27:00,
2013-04-30 21:42:00,34.3,27.0,29.78,NNE,12,2.0,6.0,75,0.00,,,0.00,weatherlink.com 1.10,2013-05-01 05:42:00,
2013-04-30 21:57:00,34.2,27.0,29.78,NE,50,3.0,7.0,76,0.00,,,0.00,weatherlink.com 1.10,2013-05-01 05:57:00,
2013-04-30 22:12:00,34.0,28.0,29.78,ENE,75,4.0,8.0,77,0.00,,,0.00,weatherlink.com 1.10,2013-05-01 06:12:00,
2013-04-30 22:27:00,34.0,28.0,29.78,NE,38,2.0,8.0,77,0.00,,,0.00,weatherlink.com 1.10,2013-05-01 06:27:00,
2013-04-30 22:42:00,33.7,28.0,29.77,NE,55,3.0,8.0,78,0.00,,,0.00,weatherlink.com 1.10,2013-05-01 06:42:00,
2013-04-30 22:57:00,33.5,27.0,29.77,ENE,78,5.0,7.0,78,0.00,,,0.00,weatherlink.com 1.10,2013-05-01 06:57:00,
2013-04-30 23:12:00,33.4,28.0,29.77,ENE,70,3.0,6.0,79,0.00,,,0.00,weatherlink.com 1.10,2013-05-01 07:12:00,
2013-04-30 23:27:00,33.2,27.0,29.77,NE,45,3.0,6.0,79,0.00,,,0.00,weatherlink.com 1.10,2013-05-01 07:27:00,
2013-04-30 23:42:00,33.0,27.0,29.76,NNE,32,3.0,5.0,80,0.00,,,0.00,weatherlink.com 1.10,2013-05-01 07:42:00,
2013-04-30 23:57:00,32.8,27.0,29.76,NE,44,2.0,5.0,80,0.00,,,0.00,weatherlink.com 1.10,2013-05-01 07:57:00,